Weather Roundup
Issued by NWS

Home | Current Version | Previous Version | Graphics & Text | Print | Product List | Glossary Off
Versions: 1 2 3 4 5 6 7 8 9 10 11 12 13 14 15 16 17 18 19 20 21 22 23 24 25 26 27 28 29 30 31 32 33 34 35 36 37 38 39 40 41 42 43 44 45 46 47 48 49 50

643
NZUS93 KARX 191110
HRRWXR

CURRENT HOURLY OBSERVATIONS ACROSS
MUCH OF THE UPPER MISSISSIPPI VALLEY
NATIONAL WEATHER SERVICE LA CROSSE WI
500 AM CST SUN FEB 19 2017


...SOUTHEAST MINNESOTA...


CITY           SKY/WX    TMP DP  RH WIND       PRES   REMARKS
ROCHESTER      FOG       33  33 100 SE8       29.92R VSB 1/2 WCI  26
ROCHESTER/MAYO FAIR      34  34 100 SE6       29.93R WCI  29
WINONA         CLEAR     30  30 100 CALM      29.95R
AUSTIN         CLOUDY    28  28 100 CALM      29.91R FOG
ALBERT LEA     FOG       34  34 100 S3        29.90S VSB 1/4
DODGE CENTER   CLOUDY    34  34 100 SE5       29.91R WCI  30
PRESTON        CLOUDY    34  33  96 CALM      29.93S FOG
OWATONNA       CLOUDY    30  28  93 CALM      29.91R
FARIBAULT      CLOUDY    30  28  93 CALM      29.91S
$$

...ELSEWHERE IN MINNESOTA...


CITY           SKY/WX    TMP DP  RH WIND       PRES   REMARKS
MINNEAPOLIS    CLOUDY    33  30  88 E5        29.91S WCI  29
INTNL FALLS    CLOUDY    30  28  92 CALM      29.90R
DULUTH         CLEAR     31  28  89 NE6       29.90R WCI  25
RED WING       CLOUDY    30  28  93 E3        29.93R
REDWOOD FALLS  PTCLDY    35  32  88 SE8       29.86S WCI  29
MANKATO          N/A     35  34  96 SE7       29.89S WCI  29
WORTHINGTON    CLEAR     39  37  92 S10       29.86R WCI  32
FAIRMONT       CLEAR     34  34 100 S8        29.89S FOG     WCI  27
$$

...SOUTHWEST WISCONSIN...


CITY           SKY/WX    TMP DP  RH WIND       PRES   REMARKS
LA CROSSE      CLEAR     28  26  92 SE6       29.95R WCI  22
PRAIRIE DU CHI FOG       28  27  96 CALM      29.96R VSB 1/4
BOSCOBEL       CLEAR     25  22  88 CALM      29.97R
LONE ROCK      CLEAR     27  26  96 CALM      29.97R
PLATTEVILLE    CLEAR     38  37  96 CALM      29.96R
FORT MC COY    CLEAR     22  22  97 CALM      29.96R
CAMP DOUGLAS   CLEAR     26  24  93 CALM      29.94R
MAUSTON-NEW LI SUNNY     29  28  95 CALM      29.94R
VIROQUA        FAIR      45  30  56 CALM      29.93S
WIS DELLS      CLEAR     30  28  92 CALM      29.95S
$$

...ELSEWHERE IN WISCONSIN...


CITY           SKY/WX    TMP DP  RH WIND       PRES   REMARKS
MILWAUKEE      CLEAR     44  31  60 NW8       29.94R
MADISON        CLEAR     29  27  92 CALM      29.95R
GREEN BAY      CLOUDY    37  33  85 CALM      29.92R
EAU CLAIRE     PTCLDY    28  27  96 CALM      29.92S FOG
BLACK RVR FLS  FAIR      23  23 100 CALM      29.95R
MEDFORD        CLEAR     35  32  89 CALM      29.91S
WAUSAU         CLEAR     32  30  92 CALM      29.91R
WIS RAPIDS     CLEAR     28  28 100 CALM      29.95R
MARSHFIELD     CLEAR     36  31  82 SW5       29.92R WCI  32
RICE LAKE      CLEAR     29  28  97 CALM      29.93S
$$

...NORTHEAST IOWA...


CITY           SKY/WX    TMP DP  RH WIND       PRES   REMARKS
WATERLOO       FOG       26  25  96 CALM      29.93R VSB 1/4
DUBUQUE        CLEAR     36  34  92 NE3       29.95R FOG
DECORAH        PTCLDY    34  34 100 CALM      29.92S FOG
MASON CITY     FOG       29  28  96 SE3       29.92R VSB 1/4
CHARLES CITY   FOG       32  32 100 SE3       29.93R VSB 1/4
OELWEIN        CLEAR     32  32 100 E6        29.93S WCI  26
$$

...ELSEWHERE IN IOWA...


CITY           SKY/WX    TMP DP  RH WIND       PRES   REMARKS
DES MOINES     CLEAR     44  34  67 VRB5      29.91F
IOWA CITY      CLOUDY    30  27  88 CALM      29.96R
FORT DODGE     CLOUDY    39  37  93 SE6       29.90S WCI  35
MARSHALLTOWN   FOG       27  27 100 E5        29.92R VSB 1/2 WCI  22
CEDAR RAPIDS   CLOUDY    32  32 100 CALM      29.93R
$$

...NORTHERN ILLINOIS...


CITY           SKY/WX    TMP DP  RH WIND       PRES   REMARKS
CHICAGO-OHARE  CLEAR     37  33  85 SW5       29.94R WCI  33
CHICAGO-MIDWAY PTCLDY    41  34  76 CALM      29.94R
MOLINE         CLOUDY    30  25  81 CALM      29.95R
ROCKFORD       CLEAR     32  29  88 CALM      29.98R
PEORIA         CLEAR     36  34  92 CALM      29.96R FOG
$$

NOTE: "FAIR" INDICATES FEW OR NO CLOUDS BELOW 12,000 FEET WITH NO
SIGNIFICANT WEATHER AND/OR OBSTRUCTIONS TO VISIBILITY. WIND
SPEEDS ARE IN MILES-PER-HOUR.




USA.gov is the U.S. government's official web portal to all federal, state and local government web resources and services.